Home > Time Zones > World Clock > Weather > Russia > Ufa > Past weeks

Flag for Russia Weather past 2 weeks in Ufa, Russia

43 °F


Feels Like: 39 °F
Forecast: 29 / 38 °F
Wind: 6 mph from North

Location: Ufa

Current Time: Oct 7, 2015 at 8:41:31 AM

Latest Report: Oct 7, 2015 at 8:00 AM

Visibility: 2 mi

Pressure: 29.62 "Hg

Humidity: 100%

Dew point: 43 °F

Location of UfaLocation

Historic Weather in Ufa — Graph


Ufa temperature yesterday

Maximum temperature yesterday: 59 °F (at 12:30 PM)
Minimum temperature yesterday: 46 °F (at 6:30 AM)
Average temperature yesterday: 53 °F

Past Weeks' High & Low Weather Summary

High82 °F (Sep 24, 3:00 PM)100% (Sep 22, 8:00 AM)30.39 "Hg (Sep 22, 8:00 AM)
Low30 °F (Oct 5, 3:30 AM)17% (Sep 30, 3:30 PM)29.06 "Hg (Oct 3, 3:30 PM)
Average55 °F66%30.07 "Hg
* Reported Sep 22 7:00 AM — Oct 7 7:30 AM, Ufa, Weather by CustomWeather, © 2015

Note: Actual official high and low records may vary slightly from our data, if they occured in-between our weather recording intervals... More about our weather records


Ufa weather history for previous 24 hours

Time TempWeatherWind HumidityBarometerVisibility
7:30 AM
Wed, Oct 7
45 °FLight rain. Fog.3 mph100%29.62 "Hg1 mi
7:00 AM45 °FLight rain. Fog.3 mph100%29.62 "Hg1 mi
6:30 AM45 °FLight rain. Low clouds.1 mph100%29.62 "Hg2 mi
6:00 AM45 °FLight rain. Low clouds.1 mph100%29.62 "Hg2 mi
5:30 AM45 °FSprinkles. Overcast.1 mph93%29.62 "Hg3 mi
5:00 AM45 °FSprinkles. Overcast.3 mph93%29.62 "HgN/A
4:30 AM46 °FSprinkles. Overcast.6 mph87%29.65 "HgN/A
4:00 AM46 °FSprinkles. Overcast.3 mph82%29.65 "HgN/A
3:30 AM48 °FSprinkles. Overcast.1 mph71%29.65 "HgN/A
3:00 AM52 °FOvercast.6 mph47%29.65 "HgN/A
2:30 AM54 °FOvercast.8 mph41%29.65 "HgN/A
2:00 AM55 °FOvercast.10 mph38%29.65 "HgN/A
1:30 AM55 °FOvercast.10 mph38%29.65 "HgN/A
1:00 AM55 °FOvercast.13 mph38%29.65 "HgN/A
12:30 AM55 °FOvercast.10 mph36%29.65 "HgN/A
12:00 AM55 °FOvercast.13 mph36%29.65 "HgN/A
11:30 PM
Tue, Oct 6
55 °FOvercast.13 mph36%29.65 "HgN/A
11:00 PM55 °FOvercast.8 mph36%29.68 "HgN/A
10:30 PM54 °FOvercast.6 mph41%29.68 "HgN/A
10:00 PM55 °FOvercast.15 mph33%29.68 "HgN/A
9:30 PM57 °FOvercast.15 mph33%29.68 "HgN/A
9:00 PM57 °FSprinkles. Overcast.15 mph36%29.71 "HgN/A
8:30 PM57 °FSprinkles. Overcast.15 mph39%29.71 "HgN/A
8:00 PM57 °FMore clouds than sun.13 mph41%29.71 "HgN/A
7:30 PM57 °FMore clouds than sun.15 mph41%29.71 "HgN/A
7:00 PM59 °FMore clouds than sun.15 mph39%29.74 "HgN/A
6:30 PM59 °FMore clouds than sun.17 mph42%29.74 "HgN/A
6:00 PM59 °FMore clouds than sun.20 mph42%29.74 "HgN/A
5:30 PM59 °FMore clouds than sun.15 mph45%29.74 "HgN/A
5:00 PM59 °FMore clouds than sun.15 mph45%29.74 "HgN/A
4:30 PM59 °FMore clouds than sun.17 mph45%29.74 "HgN/A
4:00 PM59 °FMore clouds than sun.17 mph45%29.74 "HgN/A
3:30 PM59 °FMore clouds than sun.15 mph45%29.74 "HgN/A
3:00 PM59 °FMore clouds than sun.17 mph42%29.77 "HgN/A
2:30 PM59 °FBroken clouds.20 mph45%29.77 "HgN/A
2:00 PM57 °FBroken clouds.20 mph48%29.77 "HgN/A
1:30 PM59 °FBroken clouds.22 mph45%29.77 "HgN/A
1:00 PM59 °FBroken clouds.24 mph45%29.77 "HgN/A
12:30 PM59 °FBroken clouds.22 mph39%29.80 "HgN/A
12:00 PM57 °FBroken clouds.17 mph41%29.80 "HgN/A
11:30 AM54 °FBroken clouds.17 mph44%29.80 "HgN/A
11:00 AM52 °FBroken clouds.22 mph44%29.80 "HgN/A
10:30 AM52 °FBroken clouds.22 mph41%29.80 "HgN/A
10:00 AM48 °FBroken clouds.17 mph46%29.83 "HgN/A
9:30 AM48 °FBroken clouds.17 mph46%29.83 "HgN/A
9:00 AM46 °FPartly cloudy.20 mph46%29.83 "HgN/A
8:30 AM46 °FClear.20 mph46%29.80 "Hg10 mi
8:00 AM46 °FClear.20 mph46%29.83 "Hg10 mi
Weather by CustomWeather, © 2015

See weather overviewHow to use our weather pages